This demonstration page uses our WeatherBlox Daily Observations layout. Learn more.

Left ArrowRight Arrow

Hourly Observations for September 1, 2015

Temp ( °F °C ) Dew Point ( °F °C ) Humidity (%) Winds ( mph kmh ) Pressure ( in mb ) Visibility ( mi km ) Precip ( " mm )
12:53 am 00:53 Clear with Mist and Fog 69 20.6 67 19.4 93 93 Calm 30.1 1019 5 8.0467 0 0
1:53 am 01:53 Clear with Mist and Fog 68 20 66 18.9 93 93 Calm 30.11 1020 4 6.43736 0 0
2:53 am 02:53 Clear with Mist and Fog 67 19.4 66 18.9 97 97 Calm 30.09 1019 5 8.0467 0 0
3:53 am 03:53 Clear with Mist and Fog 67 19.4 66 18.9 97 97 Calm 30.09 1019 4 6.43736 0 0
4:53 am 04:53 Clear with Mist and Fog 67 19.4 66 18.9 97 97 Calm 30.1 1019 3 4.82802 0 0
5:01 am 05:01 Clear with Mist and Fog 67 19.4 66 18.9 97 97 Calm 30.09 1019 2.5 4.02335 0 0
5:22 am 05:22 Clear with Mist and Fog 67 19.4 66 18.9 97 97 Calm 30.09 1019 3 4.82802 0 0
5:46 am 05:46 Clear with Mist and Fog 67 19.4 66 18.9 97 97 Calm 30.09 1019 2.5 4.02335 0 0
5:53 am 05:53 Clear with Mist and Fog 67 19.4 66 18.9 97 97 Calm 30.11 1020 2 3.21868 0 0
5:57 am 05:57 Mostly Cloudy with Mist and Fog 67 19.4 66 18.9 97 97 Calm 30.09 1019 1 1.60934 0 0
6:07 am 06:07 Mostly Clear with Mist and Fog 67 19.4 65 18.3 93 93 Calm 30.09 1019 2 3.21868 0 0
6:53 am 06:53 Mostly Cloudy with Mist and Fog 65 18.3 64 17.8 97 97 Calm 30.13 1020 0.75 1.207005 0 0
7:36 am 07:36 Partly Cloudy with Mist and Fog 65 18.3 64 17.8 97 97 Calm 30.12 1020 1.75 2.816345 0 0
7:42 am 07:42 Partly Cloudy with Mist and Fog 65 18.3 64 17.8 97 97 Calm 30.12 1020 3 4.82802 0 0
7:50 am 07:50 Sunny with Mist and Fog 66 19 64 18 94 94 Calm 30.12 1020 1.75 2.816345 0 0
7:53 am 07:53 Sunny with Mist and Fog 66 18.9 65 18.3 96 96 Calm 30.15 1021 1.75 2.816345 0 0
8:04 am 08:04 Sunny with Mist and Fog 67 19.4 66 18.9 97 97 Calm 30.12 1020 2.5 4.02335 0 0
8:11 am 08:11 Sunny with Mist and Fog 68 20 67 19.4 96 96 Calm 30.12 1020 3 4.82802 0 0
8:53 am 08:53 Sunny with Mist and Fog 73 22.8 69 20.6 87 87 Calm 30.15 1021 6 9.65604 0 0
9:53 am 09:53 Sunny 77 25 70 21.1 79 79 Calm 30.15 1021 8 12.87472 0 0
10:53 am 10:53 Sunny 82 27.8 69 20.6 65 65 Calm 30.15 1021 10 16.0934 0 0
11:53 am 11:53 Sunny 84 28.9 68 20 59 59 Calm 30.14 1021 10 16.0934 0 0
12:53 pm 12:53 Mostly Sunny 86 30 68 20 55 55 VRB 6 9 30.13 1020 10 16.0934 0 0
1:53 pm 13:53 Sunny 87 30.6 66 18.9 50 50 W 5 7 30.11 1020 10 16.0934 0 0
2:53 pm 14:53 Sunny 89 31.7 65 18.3 45 45 W 7 11 30.1 1019 10 16.0934 0 0
3:53 pm 15:53 Sunny 89 31.7 66 18.9 47 47 VRB 3 6 30.08 1019 10 16.0934 0 0
4:53 pm 16:53 Mostly Sunny 88 31.1 67 19.4 50 50 WNW 8 13 30.07 1018 10 16.0934 0 0
5:53 pm 17:53 Partly Cloudy 87 30.6 67 19.4 51 51 W 7 11 30.06 1018 10 16.0934 0 0
6:53 pm 18:53 Sunny 85 29.4 66 18.9 53 53 W 5 7 30.07 1018 10 16.0934 0 0
7:53 pm 19:53 Sunny 76 24.4 70 21.1 82 82 Calm 30.08 1019 9 14.48406 0 0
8:53 pm 20:53 Clear 74 23.3 69 20.6 85 85 ESE 3 6 30.09 1019 8 12.87472 0 0
9:53 pm 21:53 Clear 72 22.2 68 20 87 87 Calm 30.09 1019 7 11.26538 0 0
10:53 pm 22:53 Clear with Mist and Fog 69 20.6 67 19.4 93 93 Calm 30.1 1019 6 9.65604 0 0
11:53 pm 23:53 Clear with Mist and Fog 69 20.6 67 19.4 93 93 Calm 30.1 1019 6 9.65604 0 0

Powered by AerisWeather